Погода в Гоа

Индия     15˚20′56″N   74˚06′03″E
темп.,
°C
ветер,
м/с
пор.,
м/с
влажн.,
%
обл.,
%
осадки,
мм/ч
давл.,
гПа
погр.,
м
17 января, вс
вс1723:30+24˚ссв11751 0.0 100968
02:30+24˚вюв117311 0.0 100837
05:30+23˚св117316 0.0 100842
08:30+26˚всв12635 0.0 1011127
11:30+34˚ю124128 0.0 10111038
14:30+32˚зюз444731 0.0 1008888
17:30+29˚зюз345938 0.0 1009488
20:30+25˚ссз127228 0.0 101078
18 января, пн
пн1823:30+24˚с127515 0.0 101181
02:30+23˚всв11774 0.0 101052
05:30+22˚св12762 0.0 101046
08:30+25˚св23560 0.0 1012153
11:30+33˚всв23330 0.0 1012954
14:30+35˚зсз34320 0.0 10091929
17:30+28˚зсз46601 0.0 1008382
20:30+25˚с12780 0.0 101081
19 января, вт
вт1923:30+24˚всв12751 0.0 101157
02:30+23˚всв12644 0.0 101038
05:30+22˚в22605 0.0 101037
08:30+25˚в23604 0.0 1012151
11:30+34˚юв13362 0.0 10131210
14:30+34˚з44380 0.0 10091220
17:30+28˚з35583 0.0 1009447
20:30+25˚ссв12750 0.0 101184
20 января, ср
ср2023:30+23˚всв12760 0.0 101251
02:30+22˚всв12740 0.0 101036
05:30+22˚всв11650 0.0 101036
08:30+25˚в11510 0.0 101388
11:30+34˚юз11310 0.0 1013988
14:30+33˚з44380 0.0 10101026
17:30+29˚зсз24560 0.0 1009382
20:30+24˚ссв12760 0.0 101270
21 января, чт
чт2123:30+23˚всв12780 0.0 101263
02:30+22˚вюв11770 0.0 101150
05:30+21˚вюв11750 0.0 101135
08:30+24˚вюв11610 0.0 101358
11:30+33˚з21370 0.0 1013711
14:30+32˚з44430 0.0 1010567
17:30+29˚сз46550 0.0 1010481
20:30+24˚ссз24670 0.0 1012104